Tracking 28790 objects as of 19-Apr-2024
HD Live streaming from Space Station
objects crossing your sky now

GONETS M 04

Track GONETS M 04 now!
10-day predictions
GONETS M 04 is classified as:


NORAD ID: 38736
Int'l Code: 2012-041D
Perigee: 1,478.6 km
Apogee: 1,516.2 km
Inclination: 82.5 °
Period: 115.8 minutes
Semi major axis: 7868 km
RCS: 1.6842 m2 (large)
Launch date: July 28, 2012
Source: Commonwealth of Independent States (former USSR) (CIS)
Launch site: PLESETSK MISSILE AND SPACE COMPLEX (PKMTR)

MIR is a scientific microsatellite.
Your satellite tracking list
Your tracking list is empty




NASA's NSSDC Master Catalog

Two Line Element Set (TLE):
1 38736U 12041D   24109.90411477  .00000034  00000-0  17397-3 0  9991
2 38736  82.4827 203.9215 0023926 339.5861  20.4260 12.43862340524827
Source of the keplerian elements: AFSPC